Tracking 23731 objects as of 26-Sep-2021
HD Live streaming from Space Station
objects crossing your sky now

ELEKTRON 3

Track ELEKTRON 3 now!
10-day predictions
ELEKTRON 3 is classified as:


NORAD ID: 829
Int'l Code: 1964-038A
Perigee: 412.8 km
Apogee: 6,167.2 km
Inclination: 60.8 °
Period: 157.5 minutes
Semi major axis: 9660 km
RCS: 2.8255 m2 (large)
Launch date: July 10, 1964
Source: Commonwealth of Independent States (former USSR) (CIS)
Launch site: TYURATAM MISSILE AND SPACE COMPLEX (TTMTR)
aabbcc
Your satellite tracking list
Your tracking list is empty




NASA's NSSDC Master Catalog

Two Line Element Set (TLE):
1   829U 64038A   21267.42870271  .00000478  00000-0  14028-3 0  9996
2   829  60.8259  57.3647 2978174 249.3226  76.6079  9.14265788856979
Source of the keplerian elements: AFSPC